Laramie, WY

11:35 AM MDT on June 23, 2017 (GMT -0600)
Laramie Regional

Weather History for KLAR - January, 2013

Change the Weather History Date:

Saturday, January 12, 2013

  Actual Average Record
Temperature  
Mean Temperature -6 °F 22 °F  
Max Temperature 1 °F 34 °F 59 °F (1953)
Min Temperature -14 °F 10 °F -46 °F (1963)
Degree Days  
Heating Degree Days 71 43  
Month to date heating degree days 626 474  
Since 1 July heating degree days 3836 4147  
Cooling Degree Days 0 0  
Month to date cooling degree days 0 0  
Year to date cooling degree days 0 0  
Moisture  
Dew Point -8 °F    
Average Humidity 81    
Maximum Humidity 90    
Minimum Humidity 72    
Precipitation  
Precipitation T in 0.01 in 0.12 in (1997)
Month to date precipitation T 0.09  
Year to date precipitation T 0.09  
Sea Level Pressure  
Sea Level Pressure 30.06 in    
Wind  
Wind Speed 4 mph (NNE)    
Max Wind Speed 14 mph    
Max Gust Speed 17 mph    
Visibility 9 miles    
Events Snow    
T = Trace of Precipitation, MM = Missing Value Source: NWS Daily Summary

Daily Weather History Graph

Daily Weather History Graph

Search for Another Location

Airport or City:

Trip Planner

Search our weather history database for the weather conditions in past years. The results will help you decide how hot, cold, wet, or windy it might be!

Date:

Astronomy

Jan. 12, 2013 Rise Set
Actual Time 7:27 AM MST 4:55 PM MST
Civil Twilight 6:56 AM MST 5:25 PM MST
Nautical Twilight 6:22 AM MST 6:00 PM MST
Astronomical Twilight 5:49 AM MST 6:33 PM MST
Moon 7:46 AM MST (1/12) 6:28 PM MST (1/12)
Length of Visible Light 10h 29m
Length of Day
9h 28m
New Moon, 1% of the Moon is Illuminated
Jan 12
New Moon
Jan 18
First Quarter
Jan 26
Full
Feb 3
Last Quarter
Feb 10
New

Hourly Weather History & Observations

Time (MST) Temp. Windchill Dew Point Humidity Pressure Visibility Wind Dir Wind Speed Gust Speed Precip Events Conditions
12:53 AM -0.9 °F -18.3 °F -6.0 °F 79% 29.90 in 3.0 mi North 11.5 mph - N/A   Haze
1:53 AM -2.9 °F -11.2 °F -7.1 °F 82% 29.95 in 9.0 mi West 3.5 mph - N/A   Clear
2:53 AM -4.0 °F -14.6 °F -8.0 °F 83% 29.98 in 9.0 mi NNW 4.6 mph - N/A   Clear
3:53 AM -5.1 °F -20.4 °F -9.0 °F 83% 29.97 in 10.0 mi North 8.1 mph - N/A   Clear
4:53 AM -7.1 °F -21.4 °F -9.9 °F 87% 30.00 in 10.0 mi North 6.9 mph - N/A   Clear
5:53 AM -8.0 °F -21.0 °F -11.9 °F 83% 30.02 in 10.0 mi NNE 5.8 mph - N/A   Clear
6:53 AM -11.9 °F -25.7 °F -15.0 °F 86% 30.10 in 10.0 mi ENE 5.8 mph - N/A   Clear
7:53 AM -9.0 °F -22.3 °F -13.0 °F 83% 30.09 in 10.0 mi North 5.8 mph - N/A   Clear
8:53 AM -8.0 °F - -11.0 °F 86% 30.12 in 10.0 mi Calm Calm - N/A   Clear
9:53 AM -7.1 °F -15.9 °F -9.9 °F 87% 30.11 in 10.0 mi SE 3.5 mph - N/A   Clear
10:42 AM -4.0 °F -14.6 °F -9.4 °F 78% 29.80 in 5.0 mi East 4.6 mph - N/A   Haze
10:53 AM -2.9 °F -11.2 °F -8.0 °F 79% 30.12 in 5.0 mi East 3.5 mph - N/A   Haze
11:53 AM -0.0 °F -9.9 °F -8.0 °F 69% 30.09 in 10.0 mi NNE 4.6 mph - N/A   Clear
12:53 PM -0.0 °F -11.6 °F -7.1 °F 72% 30.09 in 10.0 mi North 5.8 mph - N/A   Clear
1:53 PM -0.0 °F -16.3 °F -6.0 °F 76% 30.10 in 10.0 mi North 10.4 mph - N/A   Clear
2:53 PM -0.0 °F -11.6 °F -6.0 °F 76% 30.12 in 10.0 mi NNE 5.8 mph - N/A   Overcast
3:53 PM -0.0 °F - -6.0 °F 76% 30.13 in 10.0 mi Calm Calm - N/A   Overcast
4:53 PM -2.9 °F - -8.0 °F 79% 30.16 in 10.0 mi Calm Calm - N/A   Clear
6:53 PM -2.0 °F -12.2 °F -6.0 °F 83% 30.19 in 8.0 mi SSW 4.6 mph - N/A   Overcast
7:39 PM -2.2 °F - -5.8 °F 85% 29.79 in 10.0 mi Calm Calm - N/A   Overcast
7:53 PM -2.9 °F - -6.0 °F 87% 30.18 in 10.0 mi Calm Calm - N/A   Overcast
8:22 PM -2.2 °F -10.4 °F -7.6 °F 78% 29.78 in 10.0 mi SSW 3.5 mph - N/A   Overcast
8:53 PM -2.9 °F - -7.1 °F 82% 30.18 in 10.0 mi Calm Calm - N/A   Overcast
9:53 PM -2.9 °F - -6.0 °F 87% 30.17 in 8.0 mi Calm Calm - N/A   Overcast
10:53 PM -2.0 °F - -6.0 °F 83% 30.16 in 3.0 mi Calm Calm - 0.00 in Snow Light Snow
11:53 PM -2.9 °F - -6.0 °F 87% 30.15 in 4.0 mi Calm Calm - 0.00 in   Overcast